Home   Weather   Ponta Delgada   Past weeks

Flag for Portugal Past Weather in Ponta Delgada, Azores, Portugal — Yesterday and Last 2 Weeks

Now
75 °F

Passing clouds.


Feels Like: 75 °F
Forecast: N/A
Wind: 7 mph from Southwest

Location: Ponta Delgada / Nordela Acores

Current Time: Aug 30, 2016 at 9:01:22 PM

Latest Report: Aug 30, 2016 at 8:00 PM


Visibility: N/A

Pressure: 30.24 "Hg

Humidity: 89%

Dew Point: 72 °F

Location of Ponta DelgadaLocation

Past Weather in Ponta Delgada — Graph

°F

Ponta Delgada Temperature Yesterday

Maximum temperature yesterday: 77 °F (at 12:30 PM)
Minimum temperature yesterday: 70 °F (at 12:00 AM)
Average temperature yesterday: 74 °F

High & Low Weather Summary for the Past Weeks

 TemperatureHumidityPressure
High79 °F (Aug 22, 1:30 PM)100% (Aug 16, 12:30 PM)30.27 "Hg (Aug 16, 12:30 PM)
Low63 °F (Aug 25, 5:00 AM)54% (Aug 24, 3:00 PM)29.92 "Hg (Aug 18, 3:30 AM)
Average73 °F83%30.14 "Hg
* Reported Aug 15 8:00 PM — Aug 30 8:00 PM, Ponta Delgada, Weather by CustomWeather, © 2016

Note: Actual official high and low records may vary slightly from our data, if they occured in-between our weather recording intervals... More about our weather records

Advertising

Ponta Delgada Weather History for the Previous 24 Hours

Scroll right to see more
 ConditionsComfort  
Time TempWeatherWind HumidityBarometerVisibility
8:00 PM
Tue, Aug 30
75 °FPassing clouds.7 mph89%30.24 "HgN/A
7:30 PM75 °FScattered clouds.6 mph89%30.24 "HgN/A
7:00 PM77 °FPassing clouds.7 mph83%30.24 "HgN/A
6:30 PM77 °FPassing clouds.8 mph83%30.24 "HgN/A
6:00 PM77 °FPassing clouds.9 mph83%30.24 "HgN/A
5:30 PM77 °FPassing clouds.8 mph83%30.24 "HgN/A
5:00 PM77 °FScattered clouds.9 mph83%30.24 "HgN/A
4:30 PM77 °FScattered clouds.10 mph83%30.24 "HgN/A
4:00 PM77 °FScattered clouds.10 mph83%30.24 "HgN/A
3:30 PM77 °FPassing clouds.10 mph83%30.24 "HgN/A
3:00 PM77 °FPassing clouds.10 mph83%30.24 "HgN/A
2:30 PM77 °FPassing clouds.10 mph83%30.27 "HgN/A
2:00 PM77 °FPassing clouds.10 mph83%30.24 "HgN/A
1:30 PM75 °FPassing clouds.9 mph89%30.24 "HgN/A
1:00 PM77 °FPassing clouds.8 mph83%30.24 "HgN/A
12:30 PM77 °FPassing clouds.10 mph83%30.27 "HgN/A
12:00 PM77 °FPassing clouds.9 mph89%30.27 "HgN/A
11:30 AM75 °FScattered clouds.9 mph94%30.27 "HgN/A
11:00 AM75 °FScattered clouds.9 mph89%30.27 "HgN/A
10:30 AM75 °FScattered clouds.8 mph89%30.27 "HgN/A
10:00 AM75 °FScattered clouds.8 mph89%30.24 "HgN/A
9:30 AM75 °FScattered clouds.6 mph89%30.24 "HgN/A
9:00 AM73 °FScattered clouds.7 mph94%30.24 "HgN/A
8:30 AM73 °FScattered clouds.7 mph94%30.24 "HgN/A
8:00 AM73 °FPartly cloudy.7 mph94%30.21 "HgN/A
7:30 AM73 °FPassing clouds.6 mph94%30.21 "HgN/A
7:00 AM73 °FPassing clouds.8 mph94%30.21 "HgN/A
6:30 AM73 °FPartly cloudy.9 mph94%30.21 "HgN/A
6:00 AM73 °FPartly cloudy.8 mph94%30.21 "HgN/A
5:30 AM73 °FPartly cloudy.9 mph94%30.18 "HgN/A
5:00 AM73 °FPartly cloudy.8 mph94%30.18 "HgN/A
4:30 AM73 °FPartly cloudy.9 mph94%30.18 "HgN/A
4:00 AM73 °FPartly cloudy.8 mph94%30.18 "HgN/A
3:30 AM73 °FPartly cloudy.7 mph94%30.21 "HgN/A
3:00 AM73 °FSprinkles. Partly cloudy.9 mph94%30.21 "Hg4 mi
2:30 AM73 °FPartly cloudy.8 mph94%30.21 "HgN/A
2:00 AM73 °FPartly cloudy.9 mph94%30.21 "HgN/A
1:30 AM73 °FPartly cloudy.10 mph94%30.21 "HgN/A
1:00 AM73 °FPassing clouds.9 mph94%30.21 "HgN/A
12:30 AM73 °FPassing clouds.8 mph94%30.21 "HgN/A
12:00 AM73 °FPassing clouds.7 mph94%30.24 "HgN/A
11:30 PM
Mon, Aug 29
73 °FPassing clouds.7 mph94%30.24 "HgN/A
11:00 PM73 °FPassing clouds.8 mph94%30.24 "HgN/A
10:30 PM73 °FPassing clouds.8 mph94%30.24 "HgN/A
10:00 PM73 °FPassing clouds.8 mph94%30.24 "HgN/A
9:30 PM73 °FPassing clouds.8 mph94%30.21 "HgN/A
9:00 PM73 °FScattered clouds.6 mph94%30.21 "HgN/A
Weather by CustomWeather, © 2016

See weather overviewHow to use our weather pages